Location: Newark
(52.4787°S, 179.0532°W)
Time: 11:41:18
(UTC+00:00)

Envisat - Pass Details

Date: 29 October 2019
Orbit: 764 x 766 km, 98.1° (Epoch: 21 November)

Event Time Altitude Azimuth Distance (km) Brightness Sun altitude
Rises 08:05:33 0° 171° (S) 3,278 6.7 -9.7°
Reaches altitude 10° 08:08:02 10° 179° (S) 2,345 6.1 -10.0°
Maximum altitude 08:12:41 35° 243° (WSW) 1,248 4.9 -10.5°
Drops below altitude 10° 08:17:17 10° 307° (NW) 2,322 5.7 -11.1°
Sets 08:19:44 0° 315° (NW) 3,241 6.3 -11.3°
